www.pogodaiklimat.ru

Погода и климат >> Архив погоды >> Россия >> Пензенская область >> Каменка


ПОГОДА в Каменке

  • Прогноз погоды в Каменке
  • Монитор погоды в Каменке

АРХИВ ПОГОДЫ в Каменке

Время (UTC), дата Ветер
(напр.,м/с)
 
Видим.   Явления Облачность Т
(С)
Тd
(С)
f
(%)
Тe
(С)
Тes
(С)
Комфортность P
(гПа)
Po
(гПа)
Тmin
(С)
Tmax
(С)
R
(мм)
R24
(мм)
S
(см)
18 11.09 штиль 0 50 км ясно +13.9 +8.7 71 +14 +14 1031.7 1009.1
21 11.09 штиль 0 50 км ясно +10.5 +7.1 79 +10 +10 1032.1 1009.2
00 12.09 ЮВ 1 50 км ясно +9.2 +6.7 84 +9 +9 1032.3 1009.3
03 12.09 В 1 20 км ясно +8.6 +6.3 85 +8 +8 1032.4 1009.4 +8.2
06 12.09 штиль 0 20 км ясно +19.1 +9.7 54 +20 +26 1031.4 1009.3
09 12.09 Ю 2 50 км 3/3 1000 м
[Sc]
+24.3 +9.1 38 +25 +31 комфорт 1029.9 1008.2
12 12.09 З 2 50 км 4/4 1000 м
[Cu Sc]
+25.5 +7.9 33 +26 +29 жарко 1028.4 1006.7
15 12.09 Ю 2 50 км ясно +22.8 +8.3 39 +24 +24 комфорт 1027.6 1005.8 +25.6
18 12.09 СЗ 1 50 км ясно +15.0 +9.1 68 +16 +16 1028.3 1005.9
21 12.09 В 1 50 км ясно +11.9 +8.0 77 +12 +12 1028.0 1005.3
00 13.09 В 1 50 км ясно +9.5 +6.5 82 +9 +9 1027.7 1004.9
03 13.09 В 1 50 км 3/3 600 м
[Sc]
+8.5 +5.5 81 +8 +8 1027.3 1004.4 +8.2
06 13.09 Ю 3 50 км 4/0
[Ac As]
+19.6 +6.3 42 +21 +23 комфорт 1026.1 1004.1
09 13.09 ЮЗ 4 50 км 3/0
[Cc]
+24.8 +6.0 30 +25 +30 комфорт 1024.4 1002.8
12 13.09 Ю 5 50 км 6/4 1000 м
[Cu hum Cc]
+25.7 +4.7 26 +25 +26 комфорт 1022.3 1000.7
15 13.09 Ю 2 50 км 3/0
[Ci fib]
+22.2 +5.5 34 +23 +23 комфорт 1020.8 999.1 +25.9
18 13.09 В 1 50 км ясно +14.6 +6.9 60 +15 +15 1021.0 998.7
21 13.09 ЮЗ 2 50 км ясно +13.9 +4.6 53 +14 +14 1019.6 997.3
00 14.09 Ю 1 50 км 6/0
[Ac As]
+14.4 +4.4 51 +15 +15 1018.3 996.0
03 14.09 Ю 5 50 км 8/0
[Ac As]
+15.6 +3.8 45 +15 +15 1016.4 994.3 +13.0
06 14.09 Ю 7-11
{11}
50 км 8/5 1000 м
[Sc Ac As Ci]
+19.5 +5.2 39 +20 +20 1014.7 992.9
09 14.09 ЮЗ 7
{11}
50 км 9/0
[Ac As]
+23.7 +5.6 31 +24 +25 комфорт 1013.2 991.8
12 14.09 ЮЗ 5
{13}
50 км 10/8 1000 м
[Sc Ac und]
+22.5 +8.3 40 +24 +24 комфорт 1012.8 991.2
15 14.09 СЗ 4
{11}
10 км слаб. дождь 10/10 1440 м
[Sc]
+14.8 +12.3 85 +14 +14 1014.4 992.3 +23.8 0.0
18 14.09 ЮЗ 2 14 км в посл. час дождь 10/10 630 м
[Sc]
+12.8 +12.9 100 +12 +12 1015.1 992.8
21 14.09 СЗ 2 21 км 8/0
[Ac lent]
+12.2 +12.1 99 +11 +11 1015.0 992.7
00 15.09 СЗ 3 23 км 9/0
[Ac As]
+10.7 +10.2 97 +9 +9 1015.7 993.2
03 15.09 З 2 50 км 4/4 1000 м
[Sc]
+8.2 +6.9 92 +6 +6 1016.2 993.5 +8.2 2
06 15.09 З 2 50 км 3/0
[Ac As]
+12.0 +7.2 72 +11 +14 1016.4 994.0 +8.0
09 15.09 ЮЗ 5 50 км 9/9 1000 м
[Cb calv]
+15.1 +5.1 51 +14 +14 1015.4 993.2
12 15.09 З 5
{12}
50 км {гроза, ливн. осадки} 8/8 1000 м
[Cb calv]
+15.1 +5.4 52 +14 +14 1014.6 992.5
15 15.09 З 3
{13}
50 км 3/3 600 м
[Sc]
+12.6 +3.7 55 +11 +11 1014.6 992.3 +15.6 0.5
18 15.09 ЮЗ 2 50 км 3/0
[Ac As]
+6.5 +3.5 81 +4 +4 1015.1 992.3
21 15.09 Ю 4 50 км 9/4 600 м
[Sc Ac As]
+8.5 +4.1 74 +6 +6 1013.0 990.4
00 16.09 З 3 50 км 10/6 600 м
[Sc Ac und]
+9.0 +3.1 67 +7 +7 1011.8 989.2
03 16.09 ЮЗ 4 50 км 10/0
[Ac und]
+9.3 +3.8 68 +7 +7 1009.4 986.9 +6.1
06 16.09 ЮЗ 3 50 км {дождь} 10/0
[Ac und]
+10.1 +6.9 81 +8 +9 1007.0 984.7
09 16.09 ЮЗ 7-11
{10}
50 км {дождь} 10/6 1000 м
[Sc Ac As]
+14.1 +7.7 65 +12 +12 1003.5 981.6
12 16.09 З 6
{16}
50 км {дождь} 10/8 1000 м
[Sc Ac und]
+15.9 +5.1 49 +15 +15 1002.2 980.4
15 16.09 ЮЗ 4
{13}
50 км 8/8 1000 м
[Sc]
+14.6 +6.3 57 +14 +14 1002.3 980.4 +16.5 0.8
18 16.09 ЮЗ 4 50 км 6/6 1000 м
[Sc]
+12.3 +7.3 72 +10 +10 1003.4 981.3
21 16.09 ЮЗ 5 50 км 3/3 1000 м
[Sc]
+9.1 +6.5 84 +6 +6 1003.4 981.1
00 17.09 ЮЗ 5 50 км ясно +9.1 +6.1 81 +6 +6 1002.9 980.5
03 17.09 ЮЗ 6 50 км 8/0
[Ac lent]
+7.8 +5.5 85 +4 +4 1002.4 980.0 +7.3
06 17.09 ЮЗ 6 50 км 9/5 1000 м
[Sc Ac trans Ci]
+13.5 +6.8 64 +11 +12 1002.1 980.1
09 17.09 З 8-11
{16}
50 км 9/9 600 м
[Cb calv]
+16.5 +5.6 48 +15 +15 1000.8 979.1
12 17.09 З 7
{13}
50 км 9/9 1000 м
[Cb calv]
+18.1 +3.3 37 +17 +18 1000.0 978.4
15 17.09 З 4
{10}
50 км 9/9 1000 м
[Sc]
+14.9 +4.8 51 +14 +14 1000.2 978.4 +18.4
18 17.09 ЮЗ 3 50 км 6/0
[Ac As]
+9.8 +4.0 67 +8 +8 1001.8 979.5
21 17.09 штиль 0 50 км ясно +5.7 +2.0 77 +5 +5 1002.6 980.0
00 18.09 ЮЗ 1 50 км 6/0
[Ci]
+4.4 +1.3 80 +3 +3 1003.3 980.6
03 18.09 ЮВ 1 50 км 8/0
[Ci]
+3.5 +1.4 86 +2 +2 1003.7 980.9 +3.3
06 18.09 Ю 4 50 км 9/4 1000 м
[Sc Ac As Cc]
+12.2 +4.7 60 +10 +11 1002.8 980.8
09 18.09 З 8-11
{11}
50 км 10/5 1000 м
[Cu med, cong As trans]
+15.9 +1.3 37 +14 +15 1001.6 979.8
12 18.09 ЮЗ 4
{12}
50 км 10/4 1000 м
[Sc As trans]
+14.7 +1.8 42 +14 +14 1000.4 978.5
15 18.09 Ю 2 10 км слаб. дождь 10/10 1140 м
[Sc]
+10.6 +7.5 81 +9 +9 998.8 976.7 +16.2 0.3

 

Местоположение метеостанции Каменка (Пензенская область, Россия): широта 53.18 долгота 44.03 высота над уровнем моря 187 м.

В архиве по умолчанию представлена погода в Каменке за последнюю неделю. Архивные данные за месяц целиком и за предыдущие месяцы, начиная с января 2011 года, Вы можете получить, выбрав интересующий диапазон дат из раскрывающегося списка и нажав кнопку "Ввод!".


*Определитесь, кто Вы:
робот инопланетянин человек

Внимание! Время в таблицах - всемирное. Для получения местного времени необходимо прибавить поправку, которая равна 3 ч.

Смотрите также архив погоды в соседних городах и на ближайших метеорологических станциях:

Погода в Белинском (Пензенская область, Россия) (48 км)
Погода в Пачелме (Пензенская область, Россия) (50 км)
Погода в Пензе (Пензенская область, Россия) (66 км)
Погода в Колышлее (Пензенская область, Россия) (70 км)
Погода в Инсаре (Мордовия, Россия) (80 км)
Погода в Кондоле (Пензенская область, Россия) (80 км)
Погода в Земетчино (Пензенская область, Россия) (99 км)
Погода в Кирсанове (Тамбовская область, Россия) (105 км)
Погода в Ртищево (Саратовская область, Россия) (105 км)
Погода в Городище (Пензенская область, Россия) (110 км)

Пояснения к столбцам:

Ветер - указаны скорость ветра в м/с - средняя за 10 мин, порывы в срок и между сроками (в фигурных скобках) и направление, откуда дует ветер: С - северный, СВ - северо-восточный, В - восточный, ЮВ - юго-восточный, Ю - южный, ЮЗ - юго-западный, З - западный, СЗ - северо-западный.
Видимость - горизонтальная дальность видимости в метрах или километрах. При видимости от 1 до 10 км при отсутствии осадков обычно наблюдается дымка, при ухудшении видимости до 1 км и менее - туман. В сухую погоду видимость может ухудшаться дымом, пылью или мглою.
Явления - указаны атмосферные явления, наблюдавшиеся в срок или в последний час перед сроком; фигурными скобками обозначены явления, наблюдавшиеся между сроками (за 1-3 часа до срока); квадратными скобками обозначены град или гололедные отложения с указанием их диаметра в мм.
Облачность - указаны через наклонную черту общая и нижняя облачность в баллах и высота нижней границы облаков в метрах; квадратными скобками обозначены формы облаков: Ci - перистые, Cs - перисто-слоистые, Cc - перисто-кучевые, Ac - высококучевые, As - высокослоистые, Sc - слоисто-кучевые, Ns - слоисто-дождевые, Cu - кучевые, Cb - кучево-дождевые. Подробнее классификацию облаков см. в Атласе облаков (PDF).
T - Температура воздуха - температура, измеренная на высоте 2 м над землей.
Td - Температура точки росы - температура, при понижении до которой содержащийся в воздухе водяной пар достигнет насыщения.
f - Относительная влажность воздуха - влажноcть воздуха, измеренная на высоте 2 м над землей.
Te - Эффективная температура - температура, которую ощущает одетый по сезону человек в тени. Характеристика душности погоды. При расчете учитывается влияние влажности воздуха и скорости ветра на теплоощущения человека.
Tes - Эффективная температура на солнце - температура, которую ощущает человек, с поправкой на солнечный нагрев. Характеристика знойности погоды. Зависит от высоты солнца над горизонтом, облачности и скорости ветра. Ночью, в пасмурную погоду, а также при ветре 12 м/с и более поправка равна нулю.
P - Атмосферное давление - приведенное к уровню моря атмосферное давление.
Po - Атмосферное давление - измеренное на уровне метеостанции атмосферное давление.
Tmin - Минимальная температура - минимум температуры воздуха на высоте 2 м над землей.
Tmax - Максимальная температура - максимум температуры воздуха на высоте 2 м над землей.
R - Количество осадков - Количество выпавших осадков за период времени, мм. При наведении курсора мыши на число - период времени, за который выпало указанное количество осадков.
R24 - Количество осадков - Количество выпавших осадков за 24 часа, мм.
S - Снежный покров - Высота снежного покрова, см. При наведении курсора мыши на число - состояние снежного покрова и степень покрытия местности в баллах.